Weather History for Burlington, CO

Change the Weather History Date:

Monday, November 25, 2013

  Actual Average Record
Temperature  
Mean Temperature 29 °F 34 °F  
Max Temperature 43 °F 48 °F 77 °F (1960)
Min Temperature 14 °F 20 °F -3 °F (1993)
Degree Days  
Heating Degree Days 36    
Moisture  
Dew Point 19 °F    
Average Humidity 72    
Maximum Humidity 89    
Minimum Humidity 38    
Precipitation  
Precipitation 0.00 in 0.01 in 0.53 in (1944)
Month to date precipitation 0.19 0.54  
Year to date precipitation 16.71 16.98  
Sea Level Pressure  
Sea Level Pressure 30.23 in    
Wind  
Wind Speed 12 mph (NNW)    
Max Wind Speed 25 mph    
Max Gust Speed 33 mph    
Visibility 10 miles    
Events      
T = Trace of Precipitation, MM = Missing Value Source: NWS Daily Summary

Daily Weather History Graph

Daily Weather History Graph

Search for Another Location

Airport:

Trip Planner

Search our weather history database for the weather conditions in past years. The results will help you decide how hot, cold, wet, or windy it might be!

Date:

Astronomy

Nov. 25, 2013 Rise Set
Actual Time 6:43 AM MST 4:28 PM MST
Civil Twilight 6:14 AM MST 4:57 PM MST
Nautical Twilight 5:41 AM MST 5:30 PM MST
Astronomical Twilight 5:09 AM MST 6:02 PM MST
Moon 11:53 PM MST (11/25) 12:03 PM MST (11/25)
Length of Visible Light 10h 43m
Length of Day
9h 44m
Waning Gibbous, 50% of the Moon is Illuminated
Nov 25
Waning Gibbous
Nov 25
Last Quarter
Dec 2
New
Dec 9
First Quarter
Dec 17
Full

Hourly Weather History & Observations

Time (MST) Temp. Windchill Dew Point Humidity Pressure Visibility Wind Dir Wind Speed Gust Speed Precip Events Conditions
12:53 AM 15.1 °F 9.4 °F 12.0 °F 88% 30.05 in 10.0 mi SSW 3.5 mph - N/A   Clear
1:53 AM 19.9 °F 8.6 °F 17.1 °F 89% 30.04 in 10.0 mi NW 10.4 mph - N/A   Clear
2:53 AM 19.9 °F 9.3 °F 17.1 °F 89% 30.04 in 10.0 mi NW 9.2 mph - N/A   Clear
3:53 AM 24.1 °F 12.5 °F 21.0 °F 88% 30.05 in 10.0 mi NNW 12.7 mph - N/A   Clear
4:53 AM 24.1 °F 13.7 °F 19.9 °F 84% 30.08 in 10.0 mi North 10.4 mph - N/A   Clear
5:53 AM 27.0 °F 14.7 °F 21.9 °F 81% 30.11 in 10.0 mi North 16.1 mph - N/A   Mostly Cloudy
6:53 AM 27.0 °F 14.3 °F 19.9 °F 75% 30.14 in 10.0 mi North 17.3 mph - N/A   Overcast
7:53 AM 28.9 °F 15.8 °F 21.9 °F 75% 30.18 in 10.0 mi North 20.7 mph 26.5 mph N/A   Mostly Cloudy
8:53 AM 30.0 °F 16.6 °F 21.0 °F 69% 30.22 in 10.0 mi North 23.0 mph 31.1 mph N/A   Overcast
9:53 AM 32.0 °F 20.5 °F 23.0 °F 69% 30.25 in 10.0 mi NNE 18.4 mph 25.3 mph N/A   Overcast
10:53 AM 39.0 °F 28.0 °F 24.1 °F 55% 30.25 in 10.0 mi NNE 25.3 mph 33.4 mph N/A   Mostly Cloudy
11:53 AM 39.0 °F 28.3 °F 21.9 °F 50% 30.25 in 10.0 mi North 24.2 mph 29.9 mph N/A   Overcast
12:53 PM 39.9 °F 31.1 °F 21.0 °F 47% 30.25 in 10.0 mi North 17.3 mph - N/A   Overcast
1:53 PM 42.1 °F 33.9 °F 18.0 °F 38% 30.23 in 10.0 mi North 17.3 mph - N/A   Overcast
2:53 PM 39.0 °F 31.0 °F 19.9 °F 46% 30.27 in 10.0 mi North 13.8 mph - N/A   Overcast
3:53 PM 39.0 °F 32.3 °F 21.0 °F 49% 30.27 in 10.0 mi NNW 10.4 mph - N/A   Overcast
4:53 PM 33.1 °F 27.7 °F 21.0 °F 61% 30.30 in 10.0 mi North 5.8 mph - N/A   Partly Cloudy
5:53 PM 32.0 °F 26.4 °F 21.9 °F 66% 30.31 in 10.0 mi North 5.8 mph - N/A   Clear
6:53 PM 26.1 °F 20.5 °F 19.9 °F 78% 30.34 in 10.0 mi NW 4.6 mph - N/A   Clear
7:53 PM 23.0 °F 14.7 °F 18.0 °F 81% 30.35 in 10.0 mi WNW 6.9 mph - N/A   Clear
8:53 PM 18.0 °F 9.8 °F 15.1 °F 88% 30.37 in 10.0 mi WNW 5.8 mph - N/A   Clear
9:53 PM 21.0 °F 11.4 °F 17.1 °F 85% 30.36 in 10.0 mi West 8.1 mph - N/A   Clear
10:53 PM 19.0 °F 10.0 °F 16.0 °F 88% 30.35 in 10.0 mi West 6.9 mph - N/A   Clear
11:53 PM 21.0 °F 10.6 °F 17.1 °F 85% 30.35 in 10.0 mi West 9.2 mph - N/A   Scattered Clouds